Regional Weather Roundup
Issued by NWS Upton, NY

Current Version | Previous Version | Graphics & Text | Print | Product List | Glossary Off
Versions: 1 2 3 4 5 6 7 8 9 10 11 12 13 14 15 16 17 18 19 20 21 22 23 24 25 26 27 28 29 30 31 32 33 34 35 36 37 38 39 40 41 42 43 44 45 46 47 48 49 50

000
ASUS41 KOKX 271705
RWROKX

REGIONAL WEATHER ROUNDUP
NATIONAL WEATHER SERVICE NEW YORK NY
100 PM EDT WED AUG 27 2014

NOTE: "FAIR" INDICATES FEW OR NO CLOUDS BELOW 12,000 FEET WITH NO
SIGNIFICANT WEATHER AND/OR OBSTRUCTIONS TO VISIBILITY.

NYZ071-072-176-178-NJZ106-104-271800-
NEW YORK CITY METRO AREA


CITY           SKY/WX    TMP DP  RH WIND       PRES   REMARKS
CENTRAL PARK   SUNNY     87  61  41 VRB6      29.99F
LAGUARDIA APRT SUNNY     87  59  38 SW8       29.96F
KENNEDY INTL   SUNNY     83  66  56 S13       29.99F
NEWARK/LIBERTY MOSUNNY   89  61  38 S8        29.96F
BRNX BOT. GARD   N/A     86  63  45 W5        29.98F
TETERBORO      SUNNY     88  61  40 VRB7      29.94F
$$

NYZ177-179-078>081-271800-
LONG ISLAND NEW YORK

CITY           SKY/WX    TMP DP  RH WIND       PRES   REMARKS
FARMINGDALE    SUNNY     81  65  58 S10       29.98F
ISLIP          SUNNY     82  65  56 SW10      29.97F
SHIRLEY        SUNNY     83  66  56 S10       29.99F
WESTHAMPTON    SUNNY     82  66  58 S10       30.00F
MONTAUK POINT    N/A     79  67  66 SW8       29.99F
$$

NYZ052-065-067-271800-
HUDSON VALLEY

CITY           SKY/WX    TMP DP  RH WIND       PRES   REMARKS
WHITE PLAINS   SUNNY     86  64  47 SW6       29.97F
NEWBURGH       SUNNY     84  70  61 SW9       29.98F
MONTGOMERY     SUNNY     88  67  49 S8        29.95F HX  91
POUGHKEEPSIE   SUNNY     85  65  51 VRB5      29.94F
ALBANY         CLOUDY    81  67  62 S5        29.95F
$$

NJZ001-105-106-008-010-013-015-019>022-104-271800-
NEW JERSEY

CITY           SKY/WX    TMP DP  RH WIND       PRES   REMARKS
NEWARK/LIBERTY MOSUNNY   89  61  38 S8        29.96F
TETERBORO      SUNNY     88  61  40 VRB7      29.94F
CALDWELL       SUNNY     87  64  46 VRB7      29.97F
MORRISTOWN     MOSUNNY   88  66  48 SW7       29.97F HX  90
SOMERVILLE     SUNNY     88  64  44 W5        29.95F
LINDEN         FAIR      92  62  35 SW3       29.98F HX  92
SUSSEX         SUNNY     86  67  52 VRB3      29.98F
ANDOVER          N/A     84  68  58 VRB5      29.99F
TRENTON        SUNNY     85  62  46 S6        29.98F
MILLVILLE      SUNNY     85  62  46 VRB5      30.01F
ATLANTIC CITY  SUNNY     84  64  50 NW6       30.01F
WRIGHTSTOWN    SUNNY     85  63  47 W8        29.98F
TOMS RIVER     SUNNY     86  61  42 CALM      30.00F
BELMAR         SUNNY     84  63  48 W7        30.00F
$$

PAZ047>061-062-071-271800-
EASTERN PENNSYLVANIA

CITY           SKY/WX    TMP DP  RH WIND       PRES   REMARKS
PHILADELPHIA   SUNNY     86  62  44 W9        30.00F
ALLENTOWN      SUNNY     84  64  50 W3        30.00F
SCRANTON       SUNNY     83  65  54 W5        30.01F
$$

CTZ002-004>006-009-010-012-RIZ004-006-007-MAZ004-011-015-271800-
SOUTHERN NEW ENGLAND
 IN CT

CITY           SKY/WX    TMP DP  RH WIND       PRES   REMARKS
BRADLEY INTL   MOSUNNY   87  66  49 SW8       29.93F
HARTFORD       SUNNY     86  64  47 SW7       29.93F
DANBURY        SUNNY     84  67  56 VRB5      29.98F
WTRBRY/OXFORD  SUNNY     82  66  57 SW8       30.01F
BRIDGEPORT     SUNNY     84  66  54 SW10      29.97F
MERIDEN        SUNNY     86  66  51 VRB6      29.95F
NEW HAVEN      SUNNY     82  67  60 S10       29.97F
CHESTER        FAIR      81  66  61 W8        29.99F
GROTON         SUNNY     77  68  73 S8        29.97F
WILLIMANTIC    SUNNY     84  66  54 SW8       29.96F

 IN RI

CITY           SKY/WX    TMP DP  RH WIND       PRES   REMARKS
PROVIDENCE     SUNNY     86  64  47 SW14      29.95F
BLOCK ISLAND   SUNNY     77  64  65 SW20      30.00F
WESTERLY       SUNNY     79  67  66 S10       29.98F

 IN MA

CITY           SKY/WX    TMP DP  RH WIND       PRES   REMARKS
BOSTON         MOSUNNY   89  64  43 SW17      29.90F HX  90
WORCESTER      SUNNY     81  66  60 W15       29.98F
WESTFIELD      PTSUNNY   85  67  54 W7        29.94F
PROVINCETOWN   SUNNY     79  64  61 SW14G23   29.94F
NANTUCKET      SUNNY     74  67  78 SW13      29.99F
$$

ANZ330-335-338-340-345-350-353-355-271800-
COASTAL MARINE OBSERVATIONS


STATION/POSITION TIME  SKY/WX   TEMP    WIND        PRES    VSBY  WAVE
                                AIR SEA DIR/SP/G                  HT/PER
                 (UTC)          (F)     (DEG/KT/KT) (MB)    (MI)  (FT/S)
NY HARB ENTRANCE NOT AVBL
4S FIRE IS       NOT AVBL
23SW MTP         1700                                 N/A           4/ 9
HUDSON CANYON    1700            72 74  300/  4/  6 1016.3          5/11
EXECUTION ROCKS  1700            80 75  190/  8/ 10   N/A
WESTERN LI SOUND 1700            80     210/  6/  8   N/A           0
CENTRAL LI SOUND 1600            76 74  210/  6/  8   N/A           1
EASTERN LI SOUND 1600            73 70  170/  4/  6   N/A
ROBBINS REEF     1600            79     160/ 11/ 13   N/A
$$


>>>>>>>>>>>>>>>>>>>>>>>>>>>> KEY <<<<<<<<<<<<<<<<<<<<<<<<<<<
>                                                          <
>     SKY/WX - SKY CONDITION/PRESENT WEATHER               <
>     TMP    - TEMPERATURE IN FAHRENHEIT                   <
>     DP     - DEWPOINT IN FAHRENHEIT                      <
>     RH     - RELATIVE HUMIDITY IN PERCENT                <
>     WIND   - DIRECTION AND SPEED IN MPH                  <
>     PRES   - MEAN SEA LEVEL PRESSURE IN INCHES OF HG     <
>     WCI    - WIND CHILL INDEX                            <
>     VSB    - VISIBILITY IN MILES                         <
>     HX     - HEAT INDEX                                  <
>     TC     - TEMPERATURE IN CELSIUS                      <
>     VRB    - VARIABLE WIND DIRECTION                     <
>                                                          <
>>>>>>>>>>>>>>>>>>>>>>>>>>>> KEY <<<<<<<<<<<<<<<<<<<<<<<<<<<




USA.gov is the U.S. government's official web portal to all federal, state and local government web resources and services.